Probability
0 0 0 0 0 0 0 0 0 0 0 0 0 0 0 0 0 0 0 0 0 0 0 0 0 0 0 0 0 0 0 0 0 0 0 0 0 0 0 0 0 0 0 6 0 0 0 6 6
0 0 0 0 0 0 0 0 0 0 0 0 0 0 0 0 0 0 0 0 0 0 0 0 0 0 0 0 0 0 0 0 0 0 0 0 0 0 0 0 0 0 0 0 3 3 0 3 0
0 0 0 0 0 0 0 0 0 0 0 0 0 0 0 0 0 0 0 0 0 0 0 0 0 0 0 0 0 0 0 0 0 0 0 0 0 0 0 0 0 0 0 0 0 0 3 6 10
0 0 0 0 0 0 0 0 0 0 0 0 0 0 0 0 0 0 0 0 0 0 0 0 0 0 0 0 0 0 0 0 0 0 0 0 0 0 0 0 0 0 0 0 0 0 0 0 6
0 0 0 0 0 0 0 0 0 0 0 0 0 0 0 0 0 0 0 0 0 0 0 0 0 0 0 0 0 0 0 0 0 0 0 0 0 0 0 0 0 0 0 0 0 0 0 0 3
0 0 0 0 0 0 0 0 0 0 0 0 0 0 0 0 0 0 0 0 0 0 0 0 0 0 0 0 0 0 0 0 0 0 0 0 0 0 0 0 0 0 0 0 0 0 0 0 0
0 0 0 0 0 0 0 0 0 0 0 0 0 0 0 0 0 0 0 0 0 0 0 0 0 0 0 0 0 0 0 0 0 0 0 0 0 0 0 0 0 0 0 0 0 0 0 0 0
0 0 0 0 0 0 0 0 0 0 0 0 0 0 0 0 0 0 0 0 0 0 0 0 0 0 0 0 0 0 0 0 0 0 0 0 0 0 0 0 0 0 0 0 0 0 0 0 0
0 0 0 0 0 0 0 0 0 0 0 0 0 0 0 0 0 0 0 0 0 0 0 0 0 0 0 0 0 0 0 0 0 0 0 0 0 0 0 0 0 0 0 0 0 0 0 0 0
0 0 0 0 0 0 0 0 0 0 0 0 0 0 0 0 0 0 0 0 0 0 0 0 0 0 0 0 0 0 0 0 0 0 0 0 0 0 0 0 0 0 0 0 0 0 0 0 0
0 0 0 0 0 0 0 0 0 0 0 0 0 0 0 0 0 0 0 0 0 0 0 0 0 0 0 0 0 0 0 0 0 0 0 0 0 0 0 0 0 0 0 0 0 0 0 0 0
0 0 0 0 0 0 0 0 0 0 0 0 0 0 0 0 0 0 0 0 0 0 0 0 0 0 0 0 0 0 0 0 0 0 0 0 0 0 0 0 0 0 0 0 0 0 0 0 0
0 0 0 0 0 0 0 0 0 0 0 0 0 0 0 0 0 0 0 0 0 0 0 0 0 0 0 0 0 0 0 0 0 0 0 0 0 0 0 0 0 0 0 0 0 0 0 0 0
0 0 0 0 0 0 0 0 0 0 0 0 0 0 0 0 0 0 0 0 0 0 0 0 0 0 0 0 0 0 0 0 0 0 0 0 0 0 0 0 0 0 0 0 0 0 0 0 0
0 0 0 0 0 0 0 0 0 0 0 0 0 0 0 0 0 0 0 0 0 0 0 0 0 0 0 0 0 0 0 0 0 0 0 0 0 0 0 0 0 0 0 0 0 0 0 0 0
0 0 0 0 0 0 0 0 0 0 0 0 0 0 0 0 0 0 0 0 0 0 0 0 0 0 0 0 0 0 0 0 0 0 0 0 0 0 0 0 0 0 0 0 0 0 0 0 0
0 0 0 0 0 0 0 0 0 0 0 0 0 0 0 0 0 0 0 0 0 0 0 0 0 0 0 0 0 0 0 0 0 0 0 0 0 0 0 0 0 0 0 0 0 0 0 0 0
0 0 0 0 0 0 0 0 0 0 0 0 0 0 0 0 0 0 0 0 0 0 0 0 0 0 0 0 0 0 0 0 0 0 0 0 0 0 0 0 0 0 0 0 0 0 0 0 0
0 0 0 0 0 0 0 0 0 0 0 0 0 0 0 0 0 0 0 0 0 0 0 0 0 0 0 0 0 0 0 0 0 0 0 0 0 0 0 0 0 0 0 0 0 0 0 0 0
0 0 0 0 0 0 0 0 0 0 0 0 0 0 0 0 0 0 0 0 0 0 0 0 0 0 0 0 0 0 0 0 0 0 0 0 0 0 0 0 0 0 0 0 0 0 0 0 0
0 0 0 0 0 0 0 0 0 0 0 0 0 0 0 0 0 0 0 0 0 0 0 0 0 0 0 0 0 0 0 0 0 0 0 0 0 0 0 0 0 0 0 0 0 0 0 0 0
0 0 0 0 0 0 0 0 0 0 0 0 0 0 0 0 0 0 0 0 0 0 0 0 0 0 0 0 0 0 0 0 0 0 0 0 0 0 0 0 0 0 0 0 0 0 0 0 0
0 0 0 0 0 0 0 0 0 0 0 0 0 0 0 0 0 0 0 0 0 0 0 0 0 0 0 0 0 0 0 0 0 0 0 0 0 0 0 0 0 0 0 0 0 0 0 0 0
0 0 0 0 0 0 0 0 0 0 0 0 0 0 0 0 0 0 0 0 0 0 0 0 0 0 0 0 0 0 0 0 0 0 0 0 0 0 0 0 0 0 0 0 0 0 0 0 0
0 0 0 0 0 0 0 0 0 0 0 0 0 0 0 0 0 0 0 0 0 0 0 0 0 0 0 0 0 0 0 0 0 0 0 0 0 0 0 0 0 0 0 0 0 0 0 0 0
0 0 0 0 0 0 0 0 0 0 0 0 0 0 0 0 0 0 0 0 0 0 0 0 0 0 0 0 0 0 0 0 0 0 0 0 0 0 0 0 0 0 0 0 0 0 0 0 0
0 0 0 0 0 0 0 0 0 0 0 0 0 0 0 0 0 0 0 0 0 0 0 0 0 0 0 0 0 0 0 0 0 0 0 0 0 0 0 0 0 0 0 0 0 0 0 0 0
0 0 0 0 0 0 0 0 0 0 0 0 0 0 0 0 0 0 0 0 0 0 0 0 0 0 0 0 0 0 0 0 0 0 0 0 0 0 0 0 0 0 0 0 0 0 0 0 0
0 0 0 0 0 0 0 0 0 0 0 0 0 0 0 0 0 0 0 0 0 0 0 0 0 0 0 0 0 0 0 0 0 0 0 0 0 0 0 0 0 0 0 0 0 0 0 0 0
0 0 0 0 0 0 0 0 0 0 0 0 0 0 0 0 0 0 0 0 0 0 0 0 0 0 0 0 0 0 0 0 0 0 0 0 0 0 0 0 0 0 0 0 0 0 0 0 0
Height
5876 5876 5877 5878 5878 5878 5877 5877 5876 5877 5877 5876 5875 5875 5875 5875 5876 5877 5874 5871 5870 5868 5867 5865 5863 5861 5859 5857 5855 5853 5851 5850 5848 5846 5845 5844 5843 5842 5842 5842 5842 5842 5842 5843 5843 5844 5844 5845 5845
5876 5877 5878 5879 5878 5877 5878 5877 5876 5877 5878 5877 5876 5876 5875 5874 5874 5873 5871 5870 5868 5866 5865 5863 5860 5858 5856 5854 5852 5849 5847 5845 5843 5841 5838 5837 5835 5834 5833 5833 5832 5832 5833 5833 5834 5835 5836 5837 5838
5877 5878 5879 5878 5877 5878 5878 5877 5877 5877 5878 5877 5877 5876 5875 5874 5873 5872 5870 5869 5867 5865 5863 5860 5858 5855 5853 5850 5848 5845 5843 5840 5837 5835 5832 5830 5828 5826 5825 5824 5823 5822 5823 5823 5824 5825 5826 5827 5829
5879 5880 5880 5879 5879 5879 5879 5878 5878 5878 5878 5878 5877 5877 5875 5875 5873 5872 5870 5868 5866 5863 5860 5857 5854 5851 5848 5846 5843 5839 5837 5834 5831 5828 5826 5823 5821 5818 5817 5815 5813 5812 5812 5812 5812 5813 5815 5816 5818
5881 5882 5881 5880 5880 5880 5880 5879 5879 5879 5878 5878 5878 5877 5876 5875 5873 5871 5868 5866 5863 5860 5857 5853 5850 5846 5843 5839 5836 5833 5829 5826 5823 5820 5817 5814 5811 5809 5807 5805 5803 5802 5801 5801 5801 5802 5803 5804 5806
5883 5883 5883 5882 5882 5882 5881 5881 5881 5880 5880 5879 5879 5878 5876 5874 5871 5869 5865 5862 5859 5855 5852 5848 5844 5840 5836 5832 5828 5824 5820 5816 5812 5809 5806 5803 5800 5797 5795 5793 5792 5791 5790 5789 5789 5790 5790 5792 5793
5885 5885 5884 5884 5884 5883 5883 5883 5882 5882 5881 5880 5878 5877 5874 5872 5869 5865 5861 5858 5854 5850 5846 5841 5837 5832 5827 5822 5817 5813 5808 5804 5800 5796 5792 5789 5786 5783 5780 5779 5777 5777 5776 5776 5776 5777 5777 5779 5780
5887 5887 5886 5886 5886 5885 5885 5884 5883 5882 5881 5880 5877 5875 5872 5869 5865 5861 5857 5852 5848 5843 5838 5833 5828 5822 5817 5811 5805 5800 5794 5789 5785 5780 5776 5773 5769 5766 5763 5761 5760 5760 5760 5760 5761 5762 5763 5764 5766
5890 5891 5889 5889 5888 5887 5886 5885 5884 5881 5880 5878 5875 5872 5868 5864 5860 5856 5851 5846 5841 5836 5830 5825 5819 5812 5806 5800 5793 5787 5781 5774 5769 5764 5759 5754 5750 5746 5744 5741 5740 5739 5740 5741 5742 5744 5745 5748 5750
5893 5892 5891 5890 5889 5887 5886 5884 5882 5880 5877 5875 5871 5868 5864 5860 5855 5850 5845 5840 5834 5828 5822 5816 5809 5802 5796 5788 5781 5774 5766 5759 5752 5746 5741 5736 5730 5725 5721 5718 5717 5717 5718 5719 5721 5723 5726 5729 5732
5894 5893 5892 5890 5889 5887 5885 5883 5880 5878 5875 5872 5868 5864 5859 5854 5849 5844 5839 5833 5826 5820 5813 5806 5798 5790 5782 5774 5766 5758 5749 5741 5733 5726 5720 5714 5708 5703 5698 5694 5692 5692 5693 5694 5696 5699 5703 5707 5712
5894 5893 5892 5890 5888 5886 5884 5881 5878 5875 5872 5868 5864 5859 5854 5849 5843 5837 5831 5825 5818 5811 5803 5795 5786 5777 5767 5758 5748 5739 5730 5721 5712 5703 5696 5689 5682 5676 5672 5667 5665 5665 5666 5667 5669 5673 5678 5684 5689
5895 5893 5892 5890 5887 5884 5881 5878 5875 5872 5868 5864 5860 5855 5849 5843 5837 5831 5824 5817 5809 5801 5792 5783 5773 5762 5752 5741 5730 5719 5708 5697 5687 5677 5668 5659 5652 5647 5642 5637 5635 5635 5636 5638 5641 5645 5651 5657 5664
5895 5893 5891 5888 5886 5882 5878 5875 5871 5868 5864 5859 5855 5850 5844 5837 5831 5823 5816 5808 5799 5790 5780 5770 5758 5746 5734 5722 5709 5697 5684 5672 5659 5648 5637 5629 5621 5616 5611 5607 5605 5605 5605 5607 5611 5616 5622 5629 5637
5894 5892 5890 5887 5884 5880 5876 5872 5868 5864 5859 5855 5850 5845 5838 5831 5823 5815 5807 5798 5788 5778 5766 5754 5742 5729 5715 5701 5687 5673 5659 5645 5632 5621 5611 5602 5595 5589 5584 5581 5579 5578 5578 5579 5582 5586 5593 5600 5609
5893 5890 5887 5884 5881 5877 5875 5869 5864 5859 5854 5850 5844 5838 5831 5823 5815 5806 5797 5787 5775 5764 5752 5739 5725 5710 5695 5680 5664 5649 5634 5620 5608 5597 5588 5580 5572 5566 5562 5558 5556 5555 5554 5555 5557 5561 5566 5573 5581
5891 5888 5885 5882 5878 5874 5870 5865 5859 5853 5848 5843 5837 5831 5823 5815 5806 5796 5785 5774 5762 5750 5736 5722 5708 5693 5677 5660 5643 5627 5612 5599 5588 5578 5569 5560 5553 5546 5541 5537 5535 5533 5533 5533 5535 5539 5543 5549 5555
5890 5887 5883 5878 5874 5870 5865 5860 5854 5848 5842 5837 5830 5823 5815 5806 5795 5784 5773 5761 5748 5734 5720 5706 5691 5676 5659 5642 5626 5610 5595 5583 5571 5561 5552 5543 5535 5528 5523 5519 5515 5513 5512 5513 5515 5518 5522 5527 5533
5885 5882 5878 5873 5869 5865 5861 5856 5849 5843 5837 5831 5824 5815 5806 5795 5784 5773 5761 5748 5733 5719 5705 5690 5675 5659 5642 5627 5612 5598 5585 5572 5559 5547 5537 5527 5519 5512 5506 5501 5497 5494 5493 5493 5495 5498 5503 5508 5513
5881 5877 5874 5870 5865 5861 5857 5852 5845 5838 5832 5824 5816 5806 5796 5785 5774 5762 5749 5735 5720 5706 5691 5675 5658 5642 5625 5610 5596 5582 5569 5556 5544 5532 5521 5512 5503 5496 5490 5485 5480 5477 5476 5475 5475 5478 5483 5488 5494
5877 5874 5870 5867 5862 5857 5852 5849 5841 5833 5825 5817 5808 5798 5787 5776 5765 5752 5738 5724 5709 5693 5677 5660 5643 5626 5610 5596 5583 5570 5557 5544 5532 5521 5509 5499 5490 5483 5476 5470 5466 5462 5460 5459 5458 5460 5464 5470 5475
5874 5871 5867 5862 5858 5853 5847 5842 5836 5827 5819 5810 5800 5790 5779 5768 5755 5742 5728 5713 5697 5681 5663 5646 5628 5612 5597 5583 5570 5557 5544 5533 5520 5508 5497 5487 5478 5470 5464 5458 5453 5449 5446 5444 5443 5444 5446 5451 5457
5870 5866 5862 5858 5854 5849 5842 5836 5830 5821 5812 5803 5793 5783 5772 5759 5746 5733 5718 5703 5686 5668 5651 5633 5616 5600 5585 5571 5557 5544 5531 5518 5507 5496 5486 5477 5467 5459 5453 5447 5441 5437 5433 5430 5429 5429 5430 5433 5439
5866 5862 5858 5854 5850 5844 5837 5830 5823 5814 5806 5797 5787 5776 5764 5752 5738 5724 5708 5692 5675 5657 5639 5622 5605 5590 5575 5561 5546 5533 5520 5508 5497 5486 5477 5468 5459 5451 5443 5437 5431 5426 5422 5419 5416 5415 5415 5417 5421
5863 5858 5853 5848 5842 5838 5831 5824 5818 5809 5800 5790 5780 5769 5757 5744 5730 5715 5699 5682 5665 5648 5630 5613 5597 5581 5566 5552 5537 5523 5510 5498 5487 5477 5468 5459 5451 5443 5435 5428 5421 5416 5411 5407 5404 5402 5401 5402 5405
5859 5854 5849 5842 5837 5833 5827 5819 5812 5803 5793 5783 5773 5762 5750 5737 5721 5706 5690 5673 5655 5638 5621 5604 5588 5573 5558 5543 5529 5515 5502 5489 5478 5467 5458 5449 5441 5432 5424 5416 5409 5403 5398 5394 5391 5389 5388 5388 5390
5855 5850 5845 5839 5832 5826 5821 5814 5805 5796 5787 5778 5767 5756 5743 5728 5712 5697 5681 5663 5646 5629 5612 5596 5581 5565 5550 5536 5522 5508 5494 5482 5470 5459 5449 5438 5429 5419 5410 5401 5394 5387 5382 5378 5376 5375 5374 5374 5376
5851 5846 5840 5834 5827 5819 5815 5808 5800 5791 5782 5772 5761 5749 5734 5720 5704 5688 5672 5655 5637 5620 5603 5588 5572 5558 5543 5528 5514 5501 5487 5475 5462 5451 5439 5427 5416 5404 5393 5383 5375 5368 5363 5359 5358 5358 5359 5360 5362
5848 5843 5837 5831 5824 5816 5808 5807 5796 5787 5777 5766 5754 5741 5727 5712 5696 5680 5664 5647 5629 5612 5596 5582 5567 5552 5538 5523 5509 5495 5481 5468 5454 5441 5428 5415 5402 5388 5375 5363 5352 5345 5340 5337 5337 5339 5342 5345 5348
5845 5839 5834 5828 5821 5812 5805 5802 5790 5781 5771 5759 5747 5734 5719 5704 5689 5673 5656 5639 5623 5606 5591 5577 5562 5547 5532 5518 5504 5489 5475 5461 5447 5433 5418 5403 5387 5371 5355 5340 5328 5319 5314 5313 5314 5318 5324 5329 5334
Wind_Speed
5 6 6 6 6 5 6 8 8 4 1 3 5 7 8 8 8 8 8 9 10 12 13 15 16 18 19 21 23 25 27 29 31 34 36 38 40 42 44 45 45 45 44 43 42 41 40 39 37
10 10 9 9 9 8 9 9 9 7 3 1 3 5 7 8 8 9 10 10 12 13 15 16 18 19 21 22 24 26 27 29 31 33 34 36 38 40 42 45 46 47 48 48 47 45 44 43 42
12 13 11 11 12 12 11 11 10 7 4 2 3 5 6 8 9 10 11 12 14 16 17 19 21 23 24 26 28 29 30 32 33 35 36 37 39 40 41 43 45 47 49 50 50 50 49 48 47
14 14 12 12 13 12 12 11 10 7 5 4 4 6 7 9 10 11 13 15 17 19 21 23 26 28 30 31 33 35 36 37 39 40 41 41 42 43 44 45 46 47 48 50 51 52 52 52 51
14 14 12 13 13 12 12 12 10 8 7 6 7 7 9 10 12 15 17 19 22 24 26 29 31 33 35 37 39 41 42 43 45 46 46 47 47 48 48 49 49 50 50 51 52 53 54 54 54
14 14 15 15 15 15 14 13 11 9 9 8 9 10 12 14 17 20 22 24 27 29 31 34 36 39 41 43 45 47 49 50 51 52 53 53 54 54 54 54 54 54 54 54 54 54 54 55 56
16 17 18 17 16 16 15 13 11 10 10 11 12 14 17 19 21 24 26 29 31 33 36 38 41 44 47 49 51 53 55 57 58 59 60 60 61 61 61 60 60 60 59 59 58 58 57 57 57
19 19 18 17 16 16 14 13 12 11 12 14 16 18 20 23 25 27 30 33 36 38 41 44 47 50 53 55 58 60 62 63 65 66 67 67 67 67 67 67 67 66 65 64 63 62 62 61 60
19 18 17 16 15 14 13 13 13 15 16 18 20 22 24 27 29 32 34 37 40 43 46 49 52 55 57 60 62 64 66 68 70 71 72 73 74 74 74 73 73 73 71 70 69 68 66 65 64
17 15 15 14 14 14 14 15 16 18 19 21 23 26 28 30 32 35 38 41 44 47 50 53 55 58 60 63 65 67 69 72 74 75 77 78 79 79 79 79 79 78 77 76 74 73 71 70 68
14 13 13 13 13 14 15 16 18 19 21 24 26 28 30 33 36 39 41 44 47 50 53 56 59 61 64 66 69 71 73 75 77 79 81 82 83 84 84 85 84 83 82 81 80 78 76 74 72
11 11 11 12 13 15 16 18 19 21 23 26 28 30 33 36 39 42 45 48 51 54 57 59 62 65 68 71 73 75 78 80 82 84 86 88 89 89 90 90 90 89 88 86 84 82 80 78 77
9 10 10 12 14 17 19 21 22 23 25 28 30 32 35 38 41 44 47 50 53 56 59 62 65 68 71 74 77 80 83 85 87 89 91 93 93 93 92 92 91 91 90 89 88 86 84 82 80
9 11 12 14 16 18 21 24 25 26 28 29 31 34 36 39 43 46 49 52 55 58 61 65 68 72 75 78 81 85 87 90 91 92 91 89 88 86 85 83 82 82 82 83 84 85 84 84 83
11 13 15 17 19 21 22 24 26 28 29 30 33 35 38 41 44 48 51 54 57 61 65 69 73 76 79 83 86 88 90 90 88 85 82 79 77 75 74 72 71 71 71 73 75 77 79 81 83
14 16 19 21 22 22 23 24 27 29 31 33 35 38 41 44 47 50 53 57 62 66 70 74 77 80 83 86 88 89 88 84 79 75 72 69 67 65 64 64 63 63 63 64 66 69 72 75 79
16 18 21 23 23 23 24 26 29 32 34 36 38 41 43 46 49 53 57 62 66 70 74 78 80 83 85 87 88 86 81 75 71 68 65 63 62 60 59 59 59 59 59 60 62 63 66 69 73
19 19 22 24 25 25 26 28 31 34 37 38 40 43 45 49 53 58 62 67 71 74 78 80 83 84 86 85 82 77 72 68 66 64 62 60 58 57 56 55 55 56 57 59 60 61 62 64 67
23 24 24 25 27 27 28 29 32 35 38 39 41 45 48 53 57 62 66 71 74 77 80 82 84 85 84 81 75 69 66 64 62 61 60 58 56 54 53 52 51 52 54 56 59 60 61 62 63
25 25 25 26 27 29 29 30 33 36 38 40 43 47 52 56 61 66 70 74 77 79 81 83 84 84 81 76 70 67 65 63 61 60 58 56 54 52 50 49 47 47 49 51 54 58 60 61 62
25 25 26 27 28 30 32 31 34 36 39 43 46 50 55 59 64 69 73 75 78 79 81 83 83 81 76 71 67 65 62 61 59 56 54 52 50 48 46 45 44 44 44 46 49 53 58 60 61
25 25 26 28 29 31 34 35 35 39 42 46 49 53 57 62 67 71 74 75 77 79 81 82 80 76 72 69 67 64 62 61 58 55 51 49 47 45 43 42 41 41 41 42 44 47 52 57 59
26 27 27 29 30 31 34 36 38 41 45 48 52 55 60 65 69 72 73 75 77 79 81 80 77 72 70 68 66 64 63 60 56 52 48 45 44 42 41 39 38 37 37 38 40 43 47 52 56
27 28 28 29 30 33 35 38 40 43 47 50 53 57 62 66 69 71 73 75 77 79 80 77 73 70 68 67 65 64 62 57 53 49 46 43 42 41 40 38 37 37 36 36 36 38 42 47 52
27 29 31 33 34 35 37 39 41 44 48 51 55 59 63 67 69 71 73 75 77 79 78 74 70 69 67 66 65 63 60 56 52 48 45 43 41 40 40 40 39 38 37 37 36 36 38 42 47
27 29 32 35 36 36 36 39 42 46 49 53 56 60 63 67 69 71 73 75 77 78 75 71 68 67 66 65 63 61 58 55 52 49 47 45 44 44 44 44 43 42 40 39 37 37 37 38 42
29 30 32 34 36 37 39 41 45 48 51 53 57 60 64 68 70 72 74 75 77 76 73 69 67 66 65 64 62 59 57 55 53 51 49 49 49 49 49 49 48 46 45 42 40 38 37 37 39
29 31 33 34 38 40 41 43 46 48 51 54 57 61 66 69 70 72 73 75 76 74 70 67 66 66 64 63 61 59 57 56 54 52 52 52 53 53 53 52 52 50 48 46 43 41 38 37 37
29 30 31 33 35 40 43 43 45 48 51 54 58 62 66 68 70 72 73 75 74 71 68 65 65 64 63 61 60 59 58 57 56 56 56 56 57 58 58 56 54 52 50 48 46 43 40 38 37
28 29 31 33 36 39 42 44 46 48 51 55 59 63 66 68 70 71 73 73 72 68 65 64 64 63 62 61 60 59 59 59 59 58 58 60 60 61 61 57 53 48 45 44 44 44 42 38 37
Wind_Direction
67 76 94 101 112 123 143 143 137 135 96 343 341 342 344 343 338 330 317 312 308 304 300 297 294 292 289 287 285 283 281 279 277 275 273 271 269 267 265 263 260 257 255 253 252 251 250 249 248
87 90 96 102 111 114 120 120 122 122 119 33 349 339 338 336 338 331 320 315 310 306 304 302 300 298 296 293 291 289 287 284 282 280 277 275 272 270 267 265 263 260 257 255 253 251 250 249 249
98 97 101 112 111 111 111 105 103 104 94 54 3 346 339 336 332 326 321 318 315 313 311 309 307 305 303 301 299 296 294 291 288 286 283 280 277 274 271 269 266 263 260 257 254 252 250 249 248
98 98 104 108 104 104 102 96 91 85 75 50 16 357 349 344 336 332 327 324 321 319 316 314 312 310 307 305 303 301 298 296 293 290 287 285 282 279 276 272 269 266 263 260 257 254 251 249 247
91 97 100 97 95 92 89 87 83 75 62 42 21 5 355 348 340 333 329 325 322 319 316 313 311 309 306 304 302 300 298 296 294 292 289 287 285 282 279 276 273 270 267 263 260 256 253 250 248
90 96 94 92 91 89 86 82 76 66 51 35 17 3 353 344 336 330 326 322 319 316 313 310 308 306 304 302 301 299 297 295 293 291 289 287 284 282 280 278 275 272 269 266 263 259 256 253 249
97 94 92 90 87 84 81 75 66 51 32 15 1 350 342 336 329 325 321 318 315 313 311 309 307 306 304 302 301 299 297 295 293 291 289 286 284 282 280 278 275 273 271 268 265 262 259 256 252
95 90 87 82 77 71 64 55 42 27 11 358 348 340 334 330 326 322 319 317 315 313 311 310 308 307 305 304 302 300 299 297 295 292 290 288 286 283 281 278 276 273 270 268 266 263 260 257 254
86 84 78 71 63 54 43 31 18 7 357 349 341 335 330 327 324 321 318 317 315 313 312 310 309 307 305 303 302 300 298 296 294 292 290 288 286 284 281 279 276 274 271 268 265 263 260 258 255
83 76 66 56 46 35 22 11 2 355 348 341 336 331 328 324 322 319 317 315 314 312 311 309 307 305 304 302 300 299 297 295 293 291 289 287 285 283 281 279 276 274 271 268 265 262 259 257 255
75 65 50 40 29 18 7 357 351 345 339 335 332 328 325 322 320 318 316 315 313 312 310 309 307 306 304 302 301 299 297 295 293 291 289 287 284 282 280 278 276 273 270 268 264 261 258 255 253
60 47 34 23 12 1 351 345 340 337 333 331 328 326 323 321 319 317 316 315 313 312 311 310 308 307 306 304 303 301 299 297 295 293 290 287 284 282 279 277 274 272 269 266 264 260 257 254 251
40 26 15 5 356 347 340 335 334 332 330 328 326 323 321 319 317 316 315 314 313 313 312 311 310 309 307 306 304 303 301 299 296 293 291 288 286 283 281 278 275 272 269 266 262 259 256 252 249
12 2 354 349 343 337 332 329 329 328 327 325 324 322 319 317 316 316 315 315 314 314 314 313 312 311 310 309 307 306 304 302 299 297 294 292 289 286 282 279 275 272 268 265 262 258 255 251 247
348 342 337 336 333 330 327 323 324 323 323 323 322 320 319 318 318 317 316 316 317 317 317 315 314 314 313 312 310 308 306 303 301 299 297 294 290 287 283 279 275 271 267 263 259 256 252 249 246
331 328 327 327 325 324 323 321 322 321 323 323 323 321 321 320 319 318 319 320 321 320 319 319 318 318 316 314 312 310 308 307 305 302 300 297 293 289 284 280 274 269 265 260 256 253 249 246 243
322 319 316 315 318 322 324 324 324 323 324 324 324 323 323 321 321 322 324 324 323 323 322 322 321 320 318 316 314 313 312 310 308 306 303 300 296 292 287 281 276 270 264 259 255 252 248 245 241
311 308 310 315 323 326 326 327 326 325 325 325 326 325 324 324 326 327 328 327 326 326 325 324 322 321 319 318 317 316 314 312 311 308 306 303 300 296 291 284 278 271 265 259 254 250 248 245 241
311 314 319 324 326 326 328 330 327 325 325 327 327 328 328 329 330 330 329 329 329 327 326 325 323 322 320 319 318 317 315 313 312 310 308 305 302 299 294 289 282 275 268 261 255 250 247 244 242
317 322 326 326 326 327 330 331 326 326 328 330 331 332 333 332 332 332 331 331 330 328 327 326 324 323 322 322 321 319 318 317 315 313 311 309 306 302 298 292 286 279 271 265 258 250 246 244 241
322 325 326 326 328 329 329 330 329 330 331 333 335 335 334 334 333 333 333 332 330 328 327 327 326 325 324 324 323 322 321 320 318 316 313 310 307 304 301 296 290 284 276 268 261 254 247 243 241
324 326 327 329 331 331 329 331 332 334 335 336 337 336 335 334 334 334 333 331 330 329 329 328 327 327 327 326 325 325 324 322 321 319 316 314 312 309 305 302 296 290 283 274 265 258 250 244 240
326 328 330 330 331 330 330 334 335 336 337 337 337 337 336 335 335 334 333 332 331 330 330 329 329 329 329 328 328 327 327 326 325 323 321 319 317 314 311 307 302 297 290 282 272 263 255 247 241
329 329 330 330 332 334 336 336 336 338 338 338 338 337 337 336 335 335 334 333 332 332 331 331 330 331 331 331 330 330 330 329 327 326 324 322 320 317 314 310 306 301 296 289 280 270 260 251 244
331 330 331 332 336 339 338 338 338 338 338 339 338 338 337 337 336 336 335 334 334 333 333 332 332 332 333 333 332 333 332 332 330 329 327 324 321 318 314 310 306 301 296 291 284 276 266 256 247
333 333 333 334 334 336 337 339 338 339 340 340 338 338 337 338 338 337 336 335 335 335 334 334 334 334 335 335 335 335 335 334 333 331 328 325 322 318 313 308 304 299 293 288 284 278 270 261 251
335 334 334 333 333 336 340 341 339 340 340 339 338 338 339 339 339 338 337 337 336 336 335 335 336 337 337 337 337 338 337 336 335 332 329 325 321 317 312 307 302 296 290 284 279 276 270 263 254
336 334 334 335 335 336 339 341 340 340 339 338 338 340 341 341 340 339 339 338 338 337 337 338 338 339 339 339 340 340 339 338 336 334 331 327 323 319 314 308 301 294 287 281 275 270 266 261 254
337 334 335 335 336 336 337 341 339 339 338 338 340 341 342 342 341 341 340 339 339 338 339 339 340 340 341 342 342 342 342 341 339 337 334 330 327 322 317 310 303 294 285 277 270 264 260 256 252
341 338 337 337 337 337 336 339 339 339 339 340 342 343 343 343 342 342 341 340 340 340 340 341 341 342 343 344 344 345 344 343 342 340 337 334 331 327 322 315 307 298 287 275 265 258 253 250 248